This is the latest recevied weather packets stored in our database for station/object W3JBS-2. If no packets are shown the sender has not sent any weather packets the latest 10 day(s).
| Time | Temp. | Humidity | Pressure | Rain* | Wind** | Luminosity | Snow |
|---|---|---|---|---|---|---|---|
| 1777907220 | 17.78° C | 50% | 1013.4 hPa | 0 mm | - | 1782 W/m² | - |
| 1777906320 | 17.78° C | 47% | 1013.5 hPa | 0 mm | - | 1782 W/m² | - |
| 1777905420 | 16.67° C | 51% | 1013.6 hPa | 0 mm | - | 1782 W/m² | - |
| 1777904520 | 16.67° C | 51% | 1013.6 hPa | 0 mm | - | 1781 W/m² | - |
| 1777903620 | 16.11° C | 58% | 1013.7 hPa | 0 mm | - | 1781 W/m² | - |
| 1777902720 | 15.56° C | 57% | 1013.7 hPa | 0 mm | - | 1779 W/m² | - |
| 1777901820 | 15° C | 59% | 1014 hPa | 0 mm | - | 1779 W/m² | - |
| 1777900920 | 14.44° C | 62% | 1014.2 hPa | 0 mm | - | 1779 W/m² | - |
| 1777900020 | 14.44° C | 62% | 1014.1 hPa | 0 mm | - | 1779 W/m² | - |
| 1777899120 | 13.33° C | 66% | 1014.2 hPa | 0 mm | - | 1779 W/m² | - |
| 1777898220 | 13.33° C | 67% | 1014.3 hPa | 0 mm | - | 1779 W/m² | - |
| 1777897319 | 12.78° C | 69% | 1014.2 hPa | 0 mm | - | 1779 W/m² | - |
| 1777896420 | 11.67° C | 71% | 1014.4 hPa | 0 mm | - | 1779 W/m² | - |
| 1777895520 | 11.11° C | 72% | 1014.4 hPa | 0 mm | - | 1779 W/m² | - |
| 1777894620 | 10° C | 72% | 1014.4 hPa | 0 mm | - | 1781 W/m² | - |
| 1777893720 | 9.44° C | 75% | 1014.5 hPa | 0 mm | - | 1781 W/m² | - |
| 1777892820 | 8.33° C | 78% | 1014.5 hPa | 0 mm | - | 1782 W/m² | - |
| 1777891920 | 7.22° C | 77% | 1014.6 hPa | 0 mm | - | - | - |
| 1777891019 | 6.67° C | 78% | 1014.6 hPa | 0 mm | - | - | - |
| 1777890120 | 6.11° C | 76% | 1014.8 hPa | 0 mm | - | - | - |
| 1777889220 | 6.11° C | 75% | 1014.8 hPa | 0 mm | - | - | - |
| 1777888320 | 6.11° C | 73% | 1014.7 hPa | 0 mm | - | - | - |
| 1777887420 | 6.67° C | 71% | 1014.7 hPa | 0 mm | - | - | - |
| 1777886519 | 7.22° C | 68% | 1014.7 hPa | 0 mm | - | - | - |
| 1777885619 | 7.22° C | 68% | 1014.7 hPa | 0 mm | - | - | - |
* Rain latest hour (hover to see other rain measurements)
** Current wind speed in m/s (hover to see current wind gust speed)